QPF
0.04 0.03 0.03 0.04 0.05 0.07 0.09 0.14 0.16 0.16 0.16 0.13 0.11 0.08 0.08 0.06 0.05 0.05 0.04 0.04 0.04 0.05 0.06 0.07 0.07 0.06 0.06 0.09 0.13 0.13 0.12 0.12 0.11 0.08 0.06 0.06 0.05 0.05 0.05 0.05 0.04 0.04 0.04
0.04 0.03 0.02 0.02 0.03 0.05 0.08 0.13 0.14 0.14 0.12 0.11 0.12 0.13 0.11 0.07 0.06 0.07 0.05 0.05 0.04 0.04 0.05 0.05 0.06 0.06 0.05 0.05 0.08 0.13 0.14 0.12 0.11 0.10 0.07 0.06 0.05 0.04 0.04 0.04 0.04 0.04 0.03
0.03 0.02 0.03 0.03 0.04 0.05 0.08 0.11 0.14 0.12 0.10 0.08 0.10 0.13 0.14 0.11 0.08 0.07 0.06 0.07 0.06 0.04 0.04 0.04 0.05 0.05 0.06 0.06 0.06 0.08 0.12 0.13 0.13 0.11 0.09 0.08 0.06 0.05 0.04 0.03 0.03 0.04 0.04
0.02 0.02 0.02 0.03 0.04 0.05 0.06 0.07 0.08 0.08 0.09 0.08 0.09 0.11 0.14 0.14 0.09 0.07 0.06 0.07 0.08 0.05 0.04 0.03 0.03 0.03 0.04 0.05 0.04 0.05 0.07 0.11 0.13 0.12 0.11 0.09 0.08 0.06 0.05 0.04 0.03 0.04 0.04
0.03 0.04 0.04 0.04 0.04 0.04 0.04 0.06 0.07 0.09 0.09 0.08 0.07 0.09 0.11 0.14 0.12 0.08 0.06 0.06 0.06 0.06 0.04 0.03 0.03 0.03 0.03 0.04 0.03 0.04 0.04 0.05 0.07 0.09 0.10 0.09 0.07 0.08 0.07 0.05 0.05 0.05 0.04
0.05 0.05 0.05 0.05 0.05 0.06 0.07 0.08 0.10 0.10 0.09 0.08 0.07 0.07 0.08 0.09 0.10 0.09 0.06 0.05 0.04 0.04 0.03 0.02 0.03 0.02 0.02 0.04 0.04 0.04 0.05 0.05 0.04 0.04 0.05 0.06 0.06 0.06 0.07 0.05 0.05 0.04 0.05
0.07 0.07 0.06 0.06 0.06 0.06 0.07 0.09 0.10 0.09 0.09 0.10 0.09 0.07 0.06 0.07 0.07 0.06 0.05 0.04 0.03 0.03 0.02 0.02 0.03 0.02 0.01 0.02 0.02 0.04 0.04 0.03 0.05 0.05 0.05 0.05 0.05 0.04 0.05 0.06 0.05 0.04 0.04
0.07 0.07 0.07 0.07 0.06 0.07 0.08 0.09 0.09 0.08 0.06 0.08 0.09 0.07 0.06 0.06 0.04 0.03 0.03 0.03 0.02 0.02 0.02 0.02 0.02 0.02 0.01 0.01 0.01 0.02 0.03 0.03 0.04 0.06 0.05 0.05 0.05 0.04 0.05 0.05 0.05 0.04 0.04
0.07 0.08 0.10 0.08 0.08 0.09 0.09 0.09 0.09 0.07 0.06 0.07 0.07 0.07 0.07 0.06 0.04 0.03 0.02 0.01 0.01 0.01 0.02 0.02 0.01 0.01 0.02 0.02 0.02 0.02 0.02 0.02 0.03 0.04 0.06 0.05 0.05 0.04 0.04 0.06 0.05 0.05 0.04
0.06 0.08 0.09 0.08 0.09 0.10 0.09 0.08 0.07 0.07 0.07 0.06 0.05 0.04 0.04 0.04 0.04 0.04 0.03 0.02 0.01 0.02 0.02 0.01 0.01 0.01 0.02 0.02 0.02 0.02 0.01 0.01 0.03 0.03 0.04 0.05 0.06 0.05 0.04 0.05 0.05 0.05 0.05
0.05 0.05 0.05 0.06 0.09 0.10 0.10 0.09 0.09 0.08 0.08 0.08 0.07 0.05 0.03 0.03 0.03 0.03 0.03 0.02 0.02 0.02 0.01 0.01 0.01 0.01 0.02 0.02 0.02 0.01 0.01 0.01 0.01 0.02 0.02 0.03 0.05 0.06 0.06 0.05 0.04 0.03 0.04
0.05 0.04 0.05 0.06 0.08 0.08 0.09 0.09 0.09 0.09 0.08 0.08 0.08 0.07 0.06 0.04 0.04 0.04 0.03 0.03 0.02 0.03 0.02 0.01 0.01 0.02 0.02 0.03 0.02 0.01 0.01 0.01 0.01 0.02 0.02 0.02 0.03 0.04 0.06 0.05 0.04 0.03 0.03
0.04 0.03 0.03 0.04 0.04 0.04 0.05 0.06 0.06 0.07 0.06 0.07 0.06 0.07 0.07 0.06 0.05 0.06 0.05 0.04 0.03 0.02 0.02 0.01 0.01 0.02 0.02 0.03 0.03 0.01 0.01 0.01 0.02 0.03 0.03 0.02 0.02 0.03 0.05 0.06 0.06 0.05 0.04
0.02 0.03 0.02 0.02 0.02 0.02 0.03 0.04 0.05 0.05 0.05 0.06 0.06 0.06 0.07 0.06 0.06 0.05 0.05 0.05 0.04 0.03 0.03 0.02 0.02 0.02 0.03 0.03 0.03 0.01 0.02 0.02 0.02 0.02 0.02 0.02 0.03 0.03 0.03 0.04 0.05 0.06 0.05
0.02 0.02 0.02 0.01 0.01 0.02 0.02 0.02 0.02 0.02 0.03 0.03 0.03 0.04 0.04 0.03 0.03 0.04 0.04 0.05 0.05 0.05 0.04 0.03 0.02 0.02 0.03 0.05 0.04 0.02 0.03 0.02 0.01 0.01 0.01 0.01 0.02 0.02 0.03 0.03 0.03 0.04 0.04
0.02 0.01 0.01 0.01 0.02 0.02 0.02 0.02 0.02 0.02 0.02 0.02 0.02 0.03 0.03 0.03 0.03 0.03 0.03 0.03 0.04 0.05 0.05 0.04 0.02 0.02 0.02 0.04 0.05 0.03 0.02 0.02 0.02 0.02 0.01 0.01 0.02 0.02 0.02 0.03 0.02 0.03 0.03
0.01 0.01 0.01 0.02 0.02 0.03 0.03 0.03 0.03 0.02 0.02 0.02 0.01 0.01 0.02 0.03 0.03 0.03 0.03 0.03 0.02 0.03 0.04 0.03 0.02 0.02 0.02 0.02 0.03 0.02 0.02 0.02 0.02 0.01 0.01 0.01 0.01 0.02 0.02 0.02 0.02 0.02 0.02
0.02 0.02 0.02 0.02 0.02 0.02 0.02 0.03 0.02 0.01 0.01 0.01 0.01 0.01 0.02 0.02 0.03 0.03 0.03 0.03 0.03 0.03 0.03 0.04 0.03 0.01 0.01 0.02 0.02 0.01 0.01 0.01 0.02 0.01 0.01 0.01 0.01 0.01 0.02 0.02 0.02 0.02 0.02
0.02 0.02 0.01 0.01 0.01 0.02 0.03 0.03 0.03 0.02 0.01 0.02 0.01 0.01 0.01 0.01 0.02 0.03 0.03 0.02 0.02 0.02 0.02 0.02 0.02 0.02 0.01 0.01 0.01 0.01 0.01 0.02 0.01 0.01 0.01 0.01 0.01 0.01 0.02 0.02 0.01 0.01 0.01
0.02 0.02 0.01 0.02 0.03 0.03 0.03 0.02 0.02 0.01 0.01 0.01 0.01 0.01 0.01 0.01 0.01 0.01 0.02 0.02 0.02 0.02 0.03 0.03 0.02 0.01 0.01 0.01 0.01 0.01 0.01 0.01 0.01 0.00 0.00 0.01 0.01 0.01 0.02 0.02 0.02 0.02 0.01
0.02 0.02 0.01 0.02 0.02 0.01 0.01 0.01 0.01 0.01 0.01 0.01 0.01 0.01 0.01 0.01 0.02 0.01 0.01 0.02 0.03 0.03 0.03 0.03 0.03 0.02 0.01 0.01 0.01 0.01 0.01 0.01 0.01 0.01 0.01 0.01 0.01 0.02 0.02 0.01 0.01 0.01 0.02
0.01 0.01 0.01 0.01 0.01 0.00 0.00 0.00 0.01 0.02 0.02 0.02 0.01 0.01 0.01 0.01 0.01 0.01 0.01 0.01 0.02 0.03 0.03 0.03 0.03 0.02 0.02 0.02 0.02 0.01 0.02 0.02 0.02 0.02 0.02 0.02 0.02 0.02 0.02 0.02 0.01 0.01 0.01
0.01 0.01 0.02 0.01 0.01 0.01 0.01 0.01 0.01 0.02 0.02 0.02 0.02 0.02 0.01 0.00 0.00 0.00 0.01 0.01 0.01 0.01 0.01 0.02 0.02 0.02 0.02 0.02 0.02 0.02 0.02 0.03 0.03 0.03 0.04 0.02 0.02 0.03 0.02 0.02 0.01 0.01 0.01
0.02 0.02 0.02 0.02 0.02 0.02 0.02 0.01 0.01 0.01 0.02 0.02 0.01 0.01 0.01 0.01 0.01 0.01 0.01 0.01 0.01 0.01 0.01 0.01 0.02 0.02 0.02 0.02 0.02 0.03 0.03 0.03 0.03 0.04 0.05 0.04 0.04 0.04 0.03 0.02 0.02 0.02 0.01
0.03 0.02 0.03 0.03 0.03 0.03 0.02 0.01 0.01 0.01 0.01 0.01 0.01 0.01 0.01 0.01 0.01 0.02 0.01 0.01 0.01 0.03 0.02 0.01 0.01 0.01 0.01 0.01 0.02 0.02 0.03 0.03 0.03 0.03 0.04 0.04 0.04 0.05 0.05 0.05 0.03 0.02 0.01
0.04 0.02 0.03 0.04 0.03 0.03 0.01 0.00 0.00 0.01 0.01 0.02 0.02 0.01 0.01 0.01 0.01 0.01 0.01 0.01 0.03 0.04 0.04 0.02 0.01 0.01 0.01 0.01 0.01 0.02 0.02 0.03 0.04 0.05 0.04 0.04 0.04 0.04 0.05 0.06 0.05 0.03 0.02
MSLP
1009.17 1008.76 1008.24 1007.66 1007.10 1006.65 1006.38 1006.33 1006.52 1006.93 1007.49 1008.13 1008.77 1009.36 1009.85 1010.25 1010.56 1010.83 1011.08 1011.35 1011.64 1011.95 1012.25 1012.51 1012.72 1012.85 1012.92 1012.94 1012.95 1012.98 1013.07 1013.24 1013.51 1013.85 1014.26 1014.70 1015.13 1015.53 1015.87 1016.16 1016.37 1016.54 1016.68
1008.88 1008.40 1007.81 1007.16 1006.53 1006.03 1005.71 1005.63 1005.81 1006.22 1006.80 1007.48 1008.15 1008.77 1009.29 1009.69 1009.99 1010.23 1010.44 1010.67 1010.92 1011.21 1011.51 1011.80 1012.05 1012.24 1012.38 1012.45 1012.50 1012.56 1012.65 1012.82 1013.07 1013.41 1013.81 1014.26 1014.71 1015.14 1015.52 1015.83 1016.07 1016.25 1016.39
1008.63 1008.10 1007.47 1006.79 1006.14 1005.60 1005.26 1005.16 1005.31 1005.71 1006.28 1006.95 1007.62 1008.24 1008.75 1009.13 1009.40 1009.59 1009.74 1009.91 1010.11 1010.36 1010.65 1010.96 1011.24 1011.49 1011.69 1011.83 1011.94 1012.04 1012.16 1012.33 1012.58 1012.92 1013.32 1013.78 1014.26 1014.72 1015.14 1015.49 1015.76 1015.96 1016.11
1008.43 1007.88 1007.25 1006.57 1005.93 1005.39 1005.03 1004.91 1005.03 1005.39 1005.92 1006.55 1007.20 1007.79 1008.26 1008.61 1008.84 1008.97 1009.06 1009.16 1009.30 1009.49 1009.75 1010.04 1010.35 1010.64 1010.89 1011.09 1011.25 1011.40 1011.56 1011.76 1012.02 1012.36 1012.77 1013.24 1013.74 1014.24 1014.70 1015.09 1015.41 1015.65 1015.82
1008.26 1007.74 1007.13 1006.49 1005.88 1005.35 1004.99 1004.84 1004.92 1005.22 1005.69 1006.26 1006.86 1007.41 1007.86 1008.17 1008.36 1008.45 1008.48 1008.51 1008.57 1008.70 1008.90 1009.16 1009.45 1009.75 1010.03 1010.28 1010.50 1010.69 1010.89 1011.12 1011.40 1011.75 1012.17 1012.66 1013.18 1013.70 1014.20 1014.64 1015.01 1015.29 1015.51
1008.15 1007.65 1007.09 1006.50 1005.92 1005.42 1005.05 1004.87 1004.89 1005.12 1005.53 1006.04 1006.58 1007.10 1007.52 1007.82 1008.00 1008.06 1008.05 1008.02 1008.02 1008.07 1008.19 1008.39 1008.64 1008.93 1009.22 1009.50 1009.75 1009.99 1010.22 1010.48 1010.78 1011.15 1011.58 1012.07 1012.60 1013.14 1013.67 1014.15 1014.56 1014.89 1015.14
1008.06 1007.59 1007.07 1006.53 1005.99 1005.50 1005.13 1004.91 1004.87 1005.03 1005.35 1005.80 1006.30 1006.80 1007.22 1007.54 1007.73 1007.80 1007.78 1007.72 1007.67 1007.65 1007.70 1007.82 1008.02 1008.27 1008.55 1008.83 1009.11 1009.38 1009.65 1009.94 1010.26 1010.63 1011.06 1011.54 1012.07 1012.61 1013.14 1013.63 1014.07 1014.44 1014.73
1007.99 1007.53 1007.04 1006.52 1006.00 1005.53 1005.13 1004.87 1004.77 1004.86 1005.12 1005.51 1005.98 1006.48 1006.93 1007.29 1007.53 1007.64 1007.64 1007.58 1007.50 1007.43 1007.42 1007.48 1007.62 1007.83 1008.08 1008.37 1008.66 1008.96 1009.26 1009.57 1009.90 1010.27 1010.69 1011.14 1011.64 1012.15 1012.66 1013.15 1013.59 1013.97 1014.29
1007.90 1007.43 1006.94 1006.44 1005.93 1005.44 1005.03 1004.72 1004.56 1004.58 1004.78 1005.13 1005.59 1006.10 1006.59 1007.01 1007.32 1007.51 1007.57 1007.54 1007.46 1007.38 1007.33 1007.35 1007.44 1007.62 1007.86 1008.14 1008.45 1008.77 1009.09 1009.42 1009.76 1010.12 1010.51 1010.92 1011.37 1011.83 1012.29 1012.74 1013.16 1013.53 1013.85
1007.78 1007.28 1006.78 1006.27 1005.76 1005.26 1004.82 1004.47 1004.27 1004.23 1004.38 1004.70 1005.15 1005.67 1006.20 1006.69 1007.08 1007.34 1007.48 1007.51 1007.47 1007.40 1007.35 1007.36 1007.44 1007.60 1007.83 1008.12 1008.45 1008.79 1009.14 1009.48 1009.82 1010.16 1010.52 1010.88 1011.27 1011.66 1012.06 1012.45 1012.82 1013.16 1013.47
1007.63 1007.10 1006.57 1006.05 1005.53 1005.03 1004.57 1004.20 1003.96 1003.89 1003.99 1004.28 1004.70 1005.22 1005.78 1006.32 1006.77 1007.11 1007.32 1007.42 1007.44 1007.42 1007.40 1007.42 1007.51 1007.69 1007.94 1008.25 1008.60 1008.96 1009.33 1009.68 1010.02 1010.35 1010.67 1010.98 1011.31 1011.64 1011.97 1012.29 1012.60 1012.90 1013.17
1007.48 1006.91 1006.37 1005.84 1005.33 1004.84 1004.38 1004.01 1003.75 1003.64 1003.71 1003.95 1004.34 1004.84 1005.39 1005.93 1006.42 1006.80 1007.08 1007.24 1007.33 1007.36 1007.40 1007.46 1007.59 1007.80 1008.08 1008.41 1008.79 1009.18 1009.56 1009.92 1010.26 1010.58 1010.87 1011.15 1011.42 1011.70 1011.96 1012.23 1012.48 1012.73 1012.97
1007.36 1006.78 1006.24 1005.73 1005.24 1004.78 1004.36 1004.00 1003.74 1003.61 1003.64 1003.82 1004.15 1004.59 1005.09 1005.60 1006.07 1006.47 1006.78 1006.99 1007.13 1007.23 1007.32 1007.45 1007.62 1007.87 1008.18 1008.54 1008.94 1009.34 1009.74 1010.11 1010.44 1010.75 1011.02 1011.28 1011.52 1011.76 1011.99 1012.21 1012.42 1012.63 1012.82
1007.31 1006.75 1006.24 1005.78 1005.35 1004.94 1004.57 1004.25 1004.00 1003.86 1003.84 1003.96 1004.20 1004.54 1004.95 1005.39 1005.81 1006.18 1006.48 1006.71 1006.89 1007.04 1007.19 1007.37 1007.59 1007.87 1008.20 1008.58 1008.98 1009.39 1009.78 1010.14 1010.47 1010.76 1011.03 1011.28 1011.51 1011.73 1011.95 1012.15 1012.34 1012.52 1012.68
1007.37 1006.86 1006.41 1006.02 1005.67 1005.35 1005.05 1004.78 1004.56 1004.40 1004.34 1004.38 1004.52 1004.74 1005.03 1005.36 1005.69 1006.00 1006.26 1006.49 1006.69 1006.87 1007.05 1007.26 1007.51 1007.81 1008.15 1008.52 1008.90 1009.28 1009.64 1009.98 1010.29 1010.57 1010.83 1011.07 1011.31 1011.53 1011.74 1011.95 1012.13 1012.30 1012.46
1007.57 1007.13 1006.77 1006.47 1006.21 1005.97 1005.75 1005.53 1005.34 1005.18 1005.07 1005.03 1005.07 1005.17 1005.33 1005.54 1005.76 1005.98 1006.20 1006.40 1006.58 1006.77 1006.97 1007.19 1007.44 1007.73 1008.04 1008.37 1008.71 1009.04 1009.35 1009.64 1009.90 1010.16 1010.40 1010.63 1010.86 1011.09 1011.32 1011.53 1011.73 1011.91 1012.06
1007.89 1007.54 1007.26 1007.05 1006.88 1006.73 1006.58 1006.42 1006.25 1006.08 1005.94 1005.83 1005.77 1005.77 1005.81 1005.91 1006.03 1006.17 1006.32 1006.48 1006.64 1006.81 1006.99 1007.19 1007.42 1007.67 1007.93 1008.19 1008.45 1008.70 1008.93 1009.15 1009.35 1009.55 1009.75 1009.96 1010.17 1010.39 1010.62 1010.84 1011.06 1011.25 1011.43
1008.30 1008.02 1007.83 1007.69 1007.60 1007.51 1007.41 1007.28 1007.13 1006.96 1006.80 1006.64 1006.51 1006.43 1006.39 1006.40 1006.44 1006.52 1006.61 1006.72 1006.85 1006.98 1007.13 1007.30 1007.47 1007.65 1007.83 1008.01 1008.18 1008.33 1008.46 1008.59 1008.71 1008.83 1008.96 1009.11 1009.28 1009.48 1009.69 1009.90 1010.12 1010.34 1010.54
1008.73 1008.51 1008.38 1008.29 1008.24 1008.18 1008.11 1008.01 1007.87 1007.70 1007.52 1007.34 1007.18 1007.06 1006.97 1006.93 1006.93 1006.96 1007.02 1007.09 1007.17 1007.27 1007.36 1007.47 1007.57 1007.67 1007.76 1007.85 1007.91 1007.96 1008.00 1008.02 1008.04 1008.07 1008.11 1008.18 1008.28 1008.42 1008.58 1008.77 1008.98 1009.20 1009.43
1009.11 1008.93 1008.83 1008.76 1008.72 1008.68 1008.61 1008.51 1008.37 1008.21 1008.03 1007.85 1007.70 1007.57 1007.48 1007.43 1007.41 1007.42 1007.45 1007.49 1007.53 1007.57 1007.61 1007.64 1007.67 1007.69 1007.70 1007.69 1007.67 1007.62 1007.56 1007.49 1007.41 1007.34 1007.28 1007.25 1007.26 1007.31 1007.40 1007.53 1007.71 1007.93 1008.17
1009.39 1009.23 1009.13 1009.06 1009.00 1008.95 1008.87 1008.76 1008.62 1008.47 1008.31 1008.15 1008.02 1007.92 1007.86 1007.83 1007.82 1007.82 1007.83 1007.84 1007.83 1007.82 1007.79 1007.75 1007.70 1007.64 1007.57 1007.50 1007.40 1007.30 1007.17 1007.02 1006.86 1006.70 1006.54 1006.41 1006.30 1006.25 1006.24 1006.31 1006.43 1006.62 1006.87
1009.54 1009.38 1009.27 1009.18 1009.11 1009.02 1008.92 1008.81 1008.67 1008.53 1008.39 1008.27 1008.18 1008.12 1008.09 1008.09 1008.09 1008.09 1008.08 1008.05 1008.00 1007.92 1007.82 1007.70 1007.59 1007.47 1007.35 1007.23 1007.10 1006.96 1006.79 1006.60 1006.39 1006.16 1005.92 1005.69 1005.48 1005.32 1005.21 1005.19 1005.25 1005.40 1005.63
1009.57 1009.41 1009.29 1009.18 1009.09 1008.98 1008.87 1008.74 1008.61 1008.48 1008.36 1008.28 1008.22 1008.20 1008.20 1008.22 1008.22 1008.21 1008.17 1008.09 1007.98 1007.83 1007.65 1007.47 1007.30 1007.13 1006.98 1006.84 1006.71 1006.57 1006.40 1006.21 1005.98 1005.71 1005.41 1005.10 1004.81 1004.55 1004.35 1004.24 1004.22 1004.32 1004.52
1009.52 1009.36 1009.24 1009.14 1009.03 1008.92 1008.80 1008.68 1008.55 1008.43 1008.33 1008.26 1008.23 1008.22 1008.23 1008.24 1008.23 1008.19 1008.09 1007.95 1007.77 1007.54 1007.30 1007.06 1006.83 1006.64 1006.47 1006.34 1006.22 1006.11 1005.97 1005.80 1005.58 1005.31 1004.98 1004.63 1004.28 1003.95 1003.67 1003.48 1003.40 1003.43 1003.58
1009.44 1009.31 1009.21 1009.12 1009.04 1008.94 1008.82 1008.70 1008.57 1008.46 1008.36 1008.29 1008.25 1008.23 1008.21 1008.19 1008.14 1008.04 1007.88 1007.67 1007.41 1007.11 1006.80 1006.51 1006.24 1006.02 1005.86 1005.74 1005.65 1005.57 1005.48 1005.35 1005.16 1004.90 1004.58 1004.22 1003.83 1003.46 1003.13 1002.88 1002.73 1002.71 1002.80
1009.41 1009.32 1009.26 1009.21 1009.15 1009.07 1008.98 1008.86 1008.73 1008.60 1008.48 1008.39 1008.31 1008.24 1008.18 1008.10 1007.98 1007.81 1007.59 1007.31 1006.97 1006.61 1006.25 1005.91 1005.61 1005.37 1005.20 1005.09 1005.03 1004.98 1004.92 1004.83 1004.68 1004.45 1004.15 1003.80 1003.41 1003.02 1002.66 1002.37 1002.17 1002.09 1002.12
Thickness
5725 5726 5725 5724 5724 5723 5723 5720 5721 5719 5718 5718 5718 5719 5719 5720 5719 5718 5717 5713 5711 5710 5709 5708 5707 5707 5706 5706 5706 5706 5706 5706 5705 5706 5706 5706 5706 5705 5705 5705 5704 5704 5704
5722 5722 5721 5721 5721 5720 5718 5717 5717 5714 5714 5715 5714 5715 5714 5715 5714 5712 5712 5710 5708 5706 5705 5704 5704 5703 5703 5703 5703 5702 5703 5703 5702 5702 5703 5702 5702 5702 5702 5702 5701 5701 5701
5718 5718 5718 5718 5718 5716 5713 5712 5711 5712 5711 5711 5711 5711 5711 5710 5709 5708 5707 5706 5706 5703 5702 5700 5700 5699 5700 5700 5699 5699 5699 5699 5699 5699 5699 5699 5699 5699 5699 5699 5698 5698 5699
5715 5714 5715 5715 5713 5712 5711 5709 5709 5707 5707 5707 5707 5708 5708 5705 5704 5703 5702 5701 5701 5701 5700 5697 5696 5695 5695 5695 5696 5696 5696 5696 5696 5696 5696 5696 5696 5696 5696 5696 5696 5696 5696
5712 5712 5712 5710 5708 5708 5708 5707 5705 5704 5702 5701 5702 5703 5703 5702 5699 5699 5697 5696 5696 5696 5696 5694 5692 5691 5691 5690 5691 5692 5693 5693 5693 5693 5693 5694 5693 5693 5693 5693 5693 5693 5694
5708 5707 5707 5705 5705 5704 5702 5700 5698 5698 5697 5696 5698 5698 5697 5696 5695 5694 5692 5692 5691 5691 5691 5690 5689 5689 5687 5687 5687 5688 5689 5690 5690 5690 5690 5690 5690 5690 5690 5690 5690 5690 5691
5703 5702 5703 5701 5700 5699 5697 5696 5694 5693 5692 5691 5690 5688 5690 5691 5690 5689 5689 5688 5688 5687 5686 5686 5686 5687 5687 5685 5684 5684 5685 5686 5686 5686 5687 5687 5687 5687 5686 5686 5687 5687 5688
5700 5701 5698 5698 5696 5694 5692 5691 5689 5688 5688 5687 5684 5683 5681 5682 5682 5686 5685 5683 5684 5684 5684 5683 5683 5683 5684 5685 5684 5682 5681 5681 5682 5683 5683 5683 5683 5683 5683 5683 5683 5684 5684
5697 5696 5695 5694 5693 5692 5690 5687 5684 5683 5681 5682 5682 5680 5677 5676 5677 5680 5680 5679 5679 5679 5680 5681 5680 5680 5680 5680 5680 5679 5678 5677 5678 5679 5679 5679 5679 5679 5680 5680 5680 5680 5681
5695 5694 5692 5691 5689 5688 5686 5684 5683 5681 5678 5677 5677 5676 5676 5676 5672 5671 5673 5675 5674 5674 5675 5677 5677 5677 5676 5676 5675 5674 5674 5673 5673 5674 5674 5675 5675 5675 5675 5676 5676 5676 5677
5693 5691 5689 5687 5685 5684 5681 5680 5678 5676 5676 5674 5673 5672 5670 5670 5670 5667 5666 5667 5669 5670 5671 5671 5672 5673 5672 5671 5671 5670 5668 5668 5668 5669 5669 5669 5669 5670 5670 5671 5672 5672 5673
5691 5688 5686 5683 5682 5680 5678 5675 5673 5673 5671 5670 5669 5669 5667 5665 5664 5663 5661 5660 5662 5665 5666 5667 5668 5668 5668 5667 5666 5664 5663 5662 5662 5662 5663 5663 5664 5664 5664 5665 5666 5667 5668
5688 5684 5683 5680 5678 5676 5674 5672 5670 5669 5667 5665 5664 5665 5664 5663 5663 5660 5657 5657 5657 5660 5661 5663 5664 5664 5663 5662 5660 5658 5656 5655 5655 5655 5656 5656 5657 5658 5659 5659 5660 5661 5662
5686 5682 5679 5677 5674 5672 5671 5669 5669 5667 5664 5662 5661 5659 5659 5659 5659 5657 5655 5653 5652 5654 5656 5657 5659 5658 5657 5656 5654 5652 5651 5649 5648 5649 5649 5650 5650 5651 5652 5653 5654 5655 5656
5682 5679 5676 5673 5671 5669 5667 5666 5665 5662 5661 5659 5658 5656 5655 5655 5654 5653 5652 5650 5647 5646 5648 5651 5652 5653 5651 5649 5647 5646 5645 5644 5643 5642 5643 5643 5644 5645 5646 5647 5648 5649 5650
5677 5675 5672 5669 5666 5665 5664 5662 5661 5659 5656 5655 5653 5651 5650 5651 5649 5648 5647 5646 5645 5643 5643 5647 5646 5648 5645 5645 5641 5640 5640 5638 5637 5637 5637 5637 5638 5639 5640 5641 5642 5643 5644
5674 5671 5669 5666 5664 5662 5660 5658 5657 5655 5652 5650 5649 5647 5645 5644 5644 5643 5642 5642 5641 5640 5637 5639 5640 5640 5637 5636 5636 5635 5634 5634 5634 5632 5632 5631 5632 5633 5634 5635 5636 5637 5638
5671 5669 5666 5663 5661 5658 5656 5654 5652 5650 5648 5646 5644 5642 5641 5640 5638 5637 5636 5635 5635 5634 5632 5630 5631 5632 5630 5629 5629 5628 5630 5630 5630 5628 5627 5626 5627 5627 5628 5629 5630 5631 5632
5668 5665 5662 5659 5657 5655 5652 5650 5648 5646 5644 5642 5640 5638 5636 5634 5632 5631 5629 5630 5630 5629 5626 5626 5625 5625 5625 5624 5623 5623 5624 5623 5625 5624 5623 5622 5622 5623 5623 5624 5625 5626 5627
5665 5661 5659 5656 5653 5651 5649 5646 5644 5642 5640 5639 5637 5635 5632 5630 5627 5625 5624 5623 5623 5622 5621 5620 5620 5620 5619 5618 5616 5617 5618 5619 5619 5621 5620 5620 5619 5619 5620 5620 5620 5621 5621
5662 5659 5655 5653 5650 5647 5645 5642 5640 5638 5635 5634 5633 5631 5629 5625 5621 5618 5618 5617 5616 5615 5615 5614 5614 5614 5613 5611 5611 5613 5613 5613 5614 5615 5616 5618 5619 5619 5619 5617 5617 5617 5617
5659 5656 5653 5650 5647 5645 5639 5635 5632 5633 5631 5630 5628 5627 5625 5621 5617 5612 5610 5608 5607 5607 5608 5607 5608 5607 5605 5605 5605 5605 5605 5605 5607 5610 5609 5611 5613 5614 5615 5616 5615 5614 5612
5656 5653 5650 5648 5644 5639 5634 5630 5627 5628 5627 5625 5623 5621 5621 5620 5614 5613 5609 5604 5603 5600 5598 5599 5601 5600 5600 5600 5598 5598 5598 5598 5599 5602 5602 5604 5607 5607 5609 5610 5609 5608 5607
5652 5649 5647 5645 5641 5636 5630 5626 5623 5624 5624 5622 5619 5617 5615 5613 5611 5606 5606 5606 5604 5602 5598 5596 5595 5595 5595 5594 5592 5592 5592 5593 5594 5596 5596 5596 5600 5601 5603 5604 5603 5602 5601
5650 5647 5645 5642 5638 5633 5626 5622 5618 5623 5622 5620 5617 5614 5611 5609 5603 5599 5600 5601 5601 5600 5597 5593 5591 5590 5588 5587 5585 5586 5589 5589 5591 5594 5594 5592 5594 5595 5596 5598 5598 5597 5596
5647 5645 5642 5639 5636 5632 5623 5619 5614 5621 5619 5618 5616 5613 5606 5603 5599 5595 5596 5597 5597 5596 5595 5593 5590 5588 5587 5586 5582 5581 5584 5585 5587 5588 5590 5588 5589 5590 5591 5594 5595 5594 5592